Starlink 31769

operational
NORAD ID: 59617 Int'l Des: 2024-080 Owner: SPXS Country: US Constellation: starlink
LEOCIRCULAR

Über Starlink 31769

Beschreibung wird geladen...

Live-Position

3D-Globus wird geladen...

Nächste Überflüge

Höhenverlauf

Altitude vs Time

uPlot chart will show altitude changes over time

Zweizeiliger Elementsatz

1 59617U 24080S 25350.15770451 .00005331 00000-0 20325-3 0 9994
2 59617 43.0018 149.9864 0000816 254.6115 105.4646 15.27558245 91758
Epoch: 16. Dez. 2025 • Age: 19 hours

Aktueller Status

Höhe 494.5 km
Geschwindigkeit 7.62 km/s
Subsatellitenpunkt -39.62°S, 23.07°E
Startdatum 28. Apr. 2024
Alter 1.6 years
Typ internet

Technische Details

Klassifizierung Payload
Masse 730.00 kg
Trockenmasse 700.00 kg
Gesamtmasse 730.00 kg
Länge 0.30 m
Durchmesser 4.10 m
Spannweite 29.00 m
Form Box + pan
Hersteller SPXS
Bus-Typ Starlink V2M
Phasenstatus In Orbit
Besitzer/Staat SPXS/US

Große Konstellationen

Loading constellations...